sat.trackr.live / text

‹ back to catalog

STARLINK-34216

NORAD 64337 · 2025-124W

PAYLOAD ACTIVE UNKNOWN

§ Identity

Operator
Country
US
Launch date
2025-06-10
Launch site
AFETR
Launch vehicle
Mass (kg)
RCS (m²)

Purposes: comms

External: N2YO · Heavens-Above · Gunter

§ Orbital elements

Epoch: 2026-05-25T02:54:03.841056Z

Period
94.27 min
Inclination
43.0043°
Eccentricity
0.0001367
Mean motion
15.27598092 rev/d
Perigee alt
482.1 km
Apogee alt
483.9 km
Semi-major
6,861.1 km
B*
6.1440e-4
RAAN
49.7108°
Arg perigee
261.0833°
Mean anomaly
98.9864°
Rev number
5,347

§ Raw data

STARLINK-342161 64337U 25124W   26145.12087779  .00016692  00000+0  61440-3 0  99972 64337  43.0043  49.7108 0001367 261.0833  98.9864 15.27598092 53479

JSON: /api/v1/satellites/64337 · /tle

For live sub-satellite position, see the globe view (requires WebGL).

§ Visibility from observer

Set your observer location to see the next 7 days of passes ≥ 10°. The values pass through the URL so the page stays shareable.

No JS? Fill the form by hand. The geolocation button needs JavaScript.